Location: El Chorro
(10.0985°N, 67.3542°W)
Time: 17:36:58
(UTC+00:00)

Spot 4 Rocket - Pass Details

Date: 15 November 2025
Orbit: 769 x 773 km, 98.8° (Epoch: 06 December)

Event Time Altitude Azimuth Distance (km) Brightness Sun altitude
Rises 23:25:32 0° 171° (S) 3,233 7.3 -20.0°
Reaches altitude 10° 23:27:50 10° 173° (S) 2,306 6.6 -20.5°
Maximum altitude 23:32:54 73° 257° (WSW) 804 4.2 -21.7°
Drops below altitude 10° 23:37:57 10° 342° (NNW) 2,302 6.5 -22.9°
Sets 23:40:16 0° 344° (NNW) 3,228 7.2 -23.5°
